Hourly Data Report for September 24, 2017

All times are specified in Local Standard Time (LST). Add 1 hour to adjust for Daylight Saving Time where and when it is observed.

KUGAARUK CLIMATE
NUNAVUT

68°32'15.060" N
89°47'47.020" W
15.80 m
2303094
71407
NBB

Download Data

Hourly Data (September 2017)
Hourly Data Report for September 24, 2017
Temp Definition
°C
Dew Point Temp Definition
°C
Rel Hum Definition
%
Wind Dir Definition
10's deg

Wind Spd Definition
km/h
Visibility Definition
km
Stn Press Definition
kPa
Hmdx Definition


Wind Chill Definition


Weather Definition


TIME
00:00 -1.1 -4.6 77 30 14   101.99   -6 LegendNANA
01:00 -1.1 -4.6 77 31 16   102.00   -6 LegendNANA
02:00 -1.1 -4.3 79 29 13   102.00   -5 LegendNANA
03:00 -1.1 -4.5 78 32 14   102.00   -6 LegendNANA
04:00 -1.2 -4.7 77 33 15   101.99   -6 LegendNANA
05:00 -1.4 -4.7 78 33 15   101.99   -6 LegendNANA
06:00 -1.7 -3.9 85 31 13   101.97   -6 LegendNANA
07:00 -1.3 -4.2 81 29 12   101.94   -5 LegendNANA
08:00 -1.0 -4.3 78 29 12   101.94   -5 LegendNANA
09:00 -0.6 -4.2 77 29 14   101.91   -5 LegendNANA
10:00 -0.1 -3.8 76 30 14   101.89   -4 LegendNANA
11:00 0.2 -3.9 74 30 15   101.88     LegendNANA
12:00 0.6 -3.8 72 33 16   101.88     LegendNANA
13:00 0.5 -3.3 75 32 18   101.88     LegendNANA
14:00 0.5 -2.7 79 32 19   101.88     LegendNANA
15:00 0.3 -2.6 81 33 15   101.86     LegendNANA
16:00 0.1 -2.8 81 34 14   101.84     LegendNANA
17:00 -0.1 -2.7 83 34 18   101.83   -5 LegendNANA
18:00 -0.3 -3.0 82 33 12   101.81   -4 LegendNANA
19:00 -0.5 -3.1 83 34 13   101.79   -5 LegendNANA
20:00 -0.5 -3.9 78 33 17   101.77   -5 LegendNANA
21:00 -0.7 -3.6 80 33 15   101.74   -5 LegendNANA
22:00 -0.5 -4.1 77 33 14   101.74   -5 LegendNANA
23:00 -0.6 -3.9 78 31 12   101.73   -5 LegendNANA

Notes on Data Quality.

Legend

  • E = Estimated
  • M = Missing
  • NA = Not Available
  • ‡ = Partner data that is not subject to review by the National Climate Archives
Date modified: